Flag for Germany Weather past 2 weeks in Jena, Thuringia, Germany

Now
50 °F

Passing clouds.


Feels Like: 48 °F
Forecast: 57 / 72 °F
Wind: 6 mph from Southwest

Location: Erfurt-Bindersleben

Current Time: Jun 2, 2015 at 5:38:36 AM

Latest Report: Jun 2, 2015 at 4:50 AM


Visibility: N/A

Pressure: 30.01 "Hg

Humidity: 88%

Dew point: 46 °F

Location of JenaLocation

Historic Weather in Jena — Graph

°F

Jena temperature yesterday

Maximum temperature yesterday: 63 °F (at 12:20 AM)
Minimum temperature yesterday: 50 °F (at 2:50 PM)
Average temperature yesterday: 55 °F

Past Weeks' High & Low Weather Summary

 TemperatureHumidityPressure
High70 °F (May 18, 4:50 PM)100% (May 21, 6:20 AM)30.33 "Hg (May 21, 6:20 AM)
Low36 °F (May 22, 2:20 AM)27% (May 19, 2:50 PM)29.65 "Hg (May 19, 1:20 AM)
Average54 °F66%30.01 "Hg
* Reported May 18 4:20 AM — Jun 2 4:20 AM, Jena, Weather by CustomWeather, © 2015

Note: Actual official high and low records may vary slightly from our data, if they occured in-between our weather recording intervals... More about our weather records

Advertising

Jena weather history for previous 24 hours

 ConditionsComfort  
Time TempWeatherWind HumidityBarometerVisibility
4:20 AM
Tue, Jun 2
50 °FPassing clouds.8 mph88%30.01 "HgN/A
3:50 AM50 °FPassing clouds.7 mph88%30.01 "HgN/A
3:20 AM50 °FPassing clouds.8 mph94%29.98 "HgN/A
2:50 AM50 °FPassing clouds.6 mph94%30.01 "HgN/A
2:20 AM52 °FPassing clouds.5 mph94%30.01 "HgN/A
1:50 AM50 °FPassing clouds.5 mph100%29.98 "HgN/A
1:20 AM50 °FFog.3 mph100%30.01 "Hg5 mi
12:50 AM50 °FFog.3 mph94%30.01 "HgN/A
12:20 AM50 °FPassing clouds.2 mph100%30.01 "HgN/A
11:50 PM
Mon, Jun 1
52 °FPartly cloudy.3 mph94%30.01 "HgN/A
11:20 PM52 °FPassing clouds.5 mph94%30.01 "HgN/A
10:50 PM52 °FPassing clouds.3 mph94%30.01 "HgN/A
10:20 PM52 °FPartly cloudy.2 mph94%30.01 "HgN/A
9:50 PM52 °FBroken clouds.5 mph94%30.01 "HgN/A
9:20 PM52 °FPartly sunny.5 mph94%30.04 "HgN/A
8:50 PM52 °FBroken clouds.3 mph88%30.04 "HgN/A
8:20 PM52 °FPartly sunny.3 mph88%30.04 "HgN/A
7:50 PM52 °FPartly sunny.2 mph88%30.04 "HgN/A
7:20 PM52 °FPartly sunny.5 mph88%30.04 "HgN/A
6:50 PM52 °FPartly sunny.3 mph88%30.07 "HgN/A
6:20 PM52 °FBroken clouds.2 mph94%30.07 "HgN/A
5:50 PM52 °FBroken clouds.1 mph88%30.07 "HgN/A
5:20 PM52 °FBroken clouds.2 mph88%30.07 "HgN/A
4:50 PM52 °FDrizzle. Broken clouds.3 mph88%30.04 "HgN/A
4:20 PM52 °FDrizzle. Broken clouds.1 mph88%30.07 "HgN/A
3:50 PM52 °FDrizzle. Broken clouds.5 mph88%30.07 "Hg4 mi
3:20 PM50 °FDrizzle. Broken clouds.7 mph94%30.07 "HgN/A
2:50 PM50 °FDrizzle. Broken clouds.10 mph94%30.07 "Hg4 mi
2:20 PM52 °FDrizzle. Partly sunny.8 mph82%30.07 "HgN/A
1:50 PM54 °FDrizzle. Partly sunny.7 mph82%30.04 "HgN/A
1:20 PM54 °FDrizzle. Partly sunny.5 mph77%30.04 "HgN/A
12:50 PM52 °FDrizzle. Overcast.6 mph82%30.04 "HgN/A
12:20 PM54 °FOvercast.5 mph77%30.04 "HgN/A
11:50 AM54 °FPartly sunny.5 mph82%30.04 "HgN/A
11:20 AM52 °FDrizzle. Broken clouds.9 mph82%30.01 "HgN/A
10:50 AM52 °FDrizzle. Broken clouds.8 mph88%30.04 "HgN/A
10:20 AM52 °FDrizzle. Partly sunny.9 mph94%30.01 "HgN/A
9:50 AM52 °FDrizzle. Partly sunny.13 mph94%30.01 "HgN/A
9:20 AM54 °FDrizzle. Broken clouds.14 mph88%29.98 "Hg3 mi
8:50 AM55 °FDrizzle. Partly sunny.14 mph88%29.98 "Hg2 mi
8:20 AM59 °FLight rain. Partly sunny.7 mph88%29.95 "HgN/A
7:50 AM57 °FDrizzle. Partly sunny.9 mph94%29.95 "HgN/A
7:20 AM59 °FLight rain. Partly sunny.10 mph82%29.92 "HgN/A
6:50 AM59 °FLight rain. Partly sunny.12 mph82%29.92 "HgN/A
6:20 AM61 °FPartly sunny.14 mph72%29.92 "HgN/A
5:20 AM61 °FPassing clouds.12 mph72%29.89 "HgN/A
Weather by CustomWeather, © 2015

See weather overviewHow to use our weather pages